This demonstration page uses our WeatherBlox Daily Observations layout. Learn more.

Left ArrowRight Arrow

Hourly Observations for June 2, 2015

Temp ( °F °C ) Dew Point ( °F °C ) Humidity (%) Winds ( mph kmh ) Pressure ( in mb ) Visibility ( mi km ) Precip ( " mm )
12:36 am 00:36 Partly Cloudy 78 25.6 66 18.9 67 67 N 6 9 30.06 1018 10 16 0.00 0.00
12:59 am 00:59 Mostly Cloudy 78 25.6 66 18.9 67 67 E 3 6 30.04 1017 10 16 0.00 0.00
1:59 am 01:59 Mostly Cloudy 77 25 66 18.9 69 69 E 6 9 30.04 1017 10 16 0.00 0.00
2:35 am 02:35 Mostly Cloudy with Thunderstorms 76 24.4 67 19.4 74 74 ESE 7 11 30.03 1017 10 16 0.00 0.00
2:59 am 02:59 Mostly Cloudy with Thunderstorms 76 24.4 67 19.4 74 74 SSE 3 6 30.02 1017 10 16 0.00 0.03
3:43 am 03:43 Mostly Cloudy 76 24.4 67 19.4 74 74 S 6 9 30.00 1016 10 16 0.00 0.03
3:59 am 03:59 Mostly Cloudy 76 24.4 68 20 77 77 SSE 5 7 30.01 1016 10 16 0.00 0.03
4:59 am 04:59 Mostly Cloudy 77 25 68 20 74 74 SSE 3 6 30.00 1016 10 16 0.00 0.00
5:59 am 05:59 Mostly Cloudy 77 25 68 20 74 74 S 5 7 30.00 1016 10 16 0.00 0.00
6:59 am 06:59 Partly Cloudy 78 25.6 69 20.6 74 74 S 5 7 29.99 1016 10 16 0.00 0.00
7:59 am 07:59 Mostly Cloudy 80 26.7 69 20.6 69 69 S 7 11 30.00 1016 10 16 0.00 0.00
8:59 am 08:59 Mostly Cloudy 81 27.2 69 20.6 67 67 SSW 9 15 30.01 1016 10 16 0.00 0.00
9:59 am 09:59 Mostly Cloudy 84 28.9 68 20 59 59 VRB 5 7 30.02 1017 10 16 0.00 0.00
10:59 am 10:59 Mostly Cloudy 86 30 68 20 55 55 WNW 7 11 30.02 1017 10 16 0.00 0.00
11:59 am 11:59 Mostly Cloudy 88 31.1 68 20 52 52 VRB 6 9 30.00 1016 10 16 0.00 0.00
12:20 pm 12:20 Mostly Cloudy with Thunderstorms 86 30 67 19.4 53 53 NNW 12 19 30.00 1016 10 16 0.00 0.00
12:59 pm 12:59 Cloudy with Thunderstorms 83 28.3 68 20 61 61 ENE 16 26 29.99 1016 10 16 0.00 0.00
1:06 pm 13:06 Cloudy with Thunderstorms 82 27.8 69 20.6 65 65 ESE 21 33 30.00 1016 10 16 0.00 0.00
1:11 pm 13:11 Cloudy with Thunderstorms 78 25.6 70 21.1 76 76 E 20 31 30.03 1017 0 0 0.30 7.62
1:37 pm 13:37 Cloudy with Strong Thunderstorms 74 23.3 63 17.2 69 69 NW 22 35 30.03 1017 5 8 1.89 48.01
1:42 pm 13:42 Cloudy with Strong Thunderstorms 75 23.9 62 16.7 64 64 NNE 12 19 30.03 1017 0 0 2.03 51.56
1:47 pm 13:47 Cloudy with Strong Thunderstorms 72 22.2 65 18.3 79 79 ENE 13 20 30.03 1017 1 1 2.06 52.32
1:59 pm 13:59 Cloudy with Thunderstorms 72 22.2 64 17.8 76 76 E 5 7 30.03 1017 2 3 2.07 52.58
2:41 pm 14:41 Cloudy with Thunderstorms 73 22.8 66 18.9 79 79 ESE 8 13 30.00 1016 5 8 0.02 0.51
2:59 pm 14:59 Cloudy with Thunderstorms 73 22.8 66 18.9 79 79 ESE 5 7 30.01 1016 9 14 0.02 0.51
3:27 pm 15:27 Cloudy with Rain 74 23.3 66 18.9 76 76 SE 3 6 30.03 1017 4 6 0.04 1.02
3:59 pm 15:59 Cloudy with Thunderstorms 74 23.3 66 18.9 76 76 W 5 7 30.03 1017 7 11 0.06 1.52
4:17 pm 16:17 Cloudy with Strong Thunderstorms 73 22.8 67 19.4 81 81 VRB 3 6 30.03 1017 1 2 0.04 1.02
4:20 pm 16:20 Cloudy with Strong Thunderstorms 73 22.8 67 19.4 81 81 VRB 3 6 30.03 1017 1 1 0.08 2.03
4:31 pm 16:31 Cloudy with Heavy Rain 73 22.8 66 18.9 79 79 SE 7 11 30.00 1016 1 1 0.17 4.32
4:42 pm 16:42 Cloudy with Heavy Rain 73 22.8 66 18.9 79 79 E 8 13 30.00 1016 2 3 0.22 5.59
4:52 pm 16:52 Cloudy with Light Rain 73 22.8 67 19.4 81 81 E 12 19 30.00 1016 5 8 0.22 5.59
4:59 pm 16:59 Cloudy with Light Rain 73 22.8 66 18.9 79 79 E 10 17 29.99 1016 8 13 0.22 5.59
5:59 pm 17:59 Cloudy 75 23.9 68 20 79 79 E 6 9 29.99 1016 10 16 0.00 0.03
6:50 pm 18:50 Cloudy 74 23.3 68 20 82 82 E 8 13 30.00 1016 9 14 0.00 0.00
6:59 pm 18:59 Cloudy 74 23.3 67 19.4 79 79 E 10 17 30.01 1016 9 14 0.00 0.00
7:59 pm 19:59 Cloudy 72 22.2 66 18.9 82 82 ENE 10 17 30.03 1017 8 13 0.00 0.00
8:59 pm 20:59 Cloudy with Light Rain 70 21.1 64 17.8 82 82 ENE 14 22 30.05 1018 8 13 0.00 0.03
9:59 pm 21:59 Cloudy with Light Rain 69 20.6 63 17.2 81 81 ENE 12 19 30.06 1018 10 16 0.01 0.25
10:59 pm 22:59 Cloudy 69 20.6 62 16.7 78 78 NE 15 24 30.05 1018 10 16 0.00 0.03
11:59 pm 23:59 Cloudy 69 20.6 63 17.2 81 81 NNE 15 24 30.07 1018 10 16 0.00 0.00

Powered by AerisWeather